Lid_Strength_Index
4 4 4 4 4 5 5 5 5 5 4 4 4 4 4 3 3 3 1 1 -1 -1 -0 0 1 1 2 2 2 3 3 3 3 3 3 3 3 3 4 4 4 5 5
4 4 5 5 4 4 5 5 5 6 5 5 6 5 5 5 4 4 3 2 -0 -0 0 1 2 2 2 3 3 3 3 3 3 3 4 4 4 4 4 5 5 5 5
3 4 4 4 4 4 4 5 5 6 7 6 6 6 6 7 7 5 5 5 3 1 1 1 2 2 2 3 3 3 4 4 4 4 4 5 5 5 5 5 6 6 6
2 3 4 5 5 5 5 6 6 7 7 7 8 7 7 7 7 7 7 7 6 6 4 1 1 2 2 2 3 3 4 4 5 5 5 5 5 6 6 6 7 7 7
2 3 4 5 5 5 5 7 8 7 8 9 9 10 10 9 9 9 8 8 7 7 8 4 2 2 3 3 3 3 4 4 5 5 5 6 6 6 6 7 7 7 7
2 3 4 4 5 5 6 7 8 9 9 10 10 12 12 12 11 11 10 9 9 8 8 9 9 7 3 3 3 3 3 4 5 5 6 6 6 6 7 7 8 8 7
1 3 3 4 5 6 6 7 9 10 12 12 13 13 14 13 13 13 11 10 10 10 10 11 11 10 8 3 3 3 3 4 5 5 6 6 6 7 7 7 8 8 7
1 2 3 4 5 6 6 7 9 11 12 12 12 13 14 14 14 13 14 13 11 11 12 11 12 11 11 9 8 4 3 4 4 5 5 6 6 7 7 7 8 8 7
1 1 2 4 5 6 7 8 8 8 11 12 11 12 15 13 16 15 15 14 13 14 13 12 13 12 11 11 9 7 4 4 4 5 5 6 7 7 8 8 8 7 7
3 1 2 3 4 4 5 8 8 7 8 12 12 11 11 13 14 15 17 15 15 14 14 14 12 12 12 12 10 9 8 5 5 5 6 6 7 7 8 8 7 7 7
3 2 1 2 3 4 4 6 7 7 6 8 10 12 11 12 13 14 14 17 16 16 14 13 13 13 13 13 12 11 8 7 6 6 7 7 8 8 8 8 8 7 7
6 4 2 2 2 3 4 5 6 7 7 7 8 8 10 11 12 14 15 16 17 15 15 14 14 13 13 14 12 11 9 8 8 8 8 9 9 9 8 8 8 7 7
8 6 3 2 2 3 3 4 6 6 6 6 7 9 8 8 8 10 11 14 16 15 15 14 14 14 14 14 13 12 11 9 9 9 9 9 9 9 9 9 8 8 7
5 5 5 2 1 2 3 3 4 5 5 6 6 6 7 8 8 9 9 11 15 16 16 15 14 14 14 14 13 12 13 11 10 9 9 9 9 10 9 9 8 8 8
6 6 6 6 4 3 2 2 3 4 5 6 6 6 7 7 7 8 9 9 10 10 15 16 15 14 14 14 14 13 13 12 11 10 10 10 10 10 10 9 9 8 8
7 7 7 6 6 6 5 5 4 4 5 5 6 6 7 7 7 8 9 10 9 9 10 13 15 15 14 14 14 14 14 13 12 11 10 10 10 10 10 9 9 8 8
7 7 7 7 7 7 7 5 5 5 6 6 6 7 7 7 8 8 9 10 10 10 10 12 16 15 15 15 15 14 14 14 14 12 11 11 10 11 11 10 9 8 9
8 7 8 8 7 6 6 6 6 6 6 7 7 8 8 8 9 8 10 10 11 11 11 11 17 16 16 15 15 15 15 14 15 13 12 11 11 11 10 10 9 9 9
9 9 9 9 8 7 6 6 6 6 7 7 7 8 8 9 9 9 10 10 11 12 12 14 17 16 17 15 16 15 16 16 16 14 12 12 12 11 10 10 9 9 9
10 10 11 10 10 8 8 7 7 8 8 8 8 8 8 9 9 10 11 12 13 14 15 14 17 17 17 16 16 17 18 17 17 16 14 14 13 12 11 10 10 10 10
11 11 12 12 12 11 9 10 10 10 10 9 11 11 10 10 11 10 12 13 14 14 15 15 16 18 18 18 18 17 17 17 17 16 16 16 15 14 13 12 12 11 11
13 13 13 13 13 12 10 9 10 11 12 12 12 12 12 13 12 10 10 11 12 14 14 15 17 17 18 17 17 17 17 17 18 15 16 16 14 15 14 13 12 11 10
13 13 13 13 14 14 11 10 11 13 13 13 13 13 14 14 14 13 11 11 12 11 12 14 16 16 17 16 16 16 16 16 17 16 16 17 15 15 14 13 11 11 10
15 15 15 15 16 15 11 10 10 13 13 13 13 13 14 14 14 14 14 14 14 14 14 14 14 15 15 14 14 14 15 15 16 15 15 17 16 15 14 14 12 12 12
17 17 16 17 17 13 12 11 11 13 14 14 14 14 14 14 13 12 14 15 14 14 12 12 12 12 11 11 12 14 16 16 17 17 15 15 17 17 17 16 15 13 14
16 16 14 13 13 13 12 11 12 14 15 15 15 15 14 14 12 12 14 14 15 14 14 14 13 12 12 12 11 13 14 16 17 17 16 16 18 18 20 18 17 18 18